COSMOS 2131

Satellite information

Favourite Embed

Satellite Type and Status

PAYLOADIN ORBIT

Key statistics

Satellite COSMOS 2131 at a glance.

Uptime

12509

Days in orbit

Revolutions

≈ 12.6

Per day

Orbit

LEO

Low Earth Orbit

Inclination

74.0

Latest

Satellite identification and parameters

Extended collection of information and parameters for COSMOS 2131.

Object identification

Identified? True

Debris? False

Object name: COSMOS 2131

International designator: 1991-009G

Object number (NORAD): 21106

Object ID (CCSDS): 21106

Country: COMMONWEALTH OF INDEPENDENT STATES (CIS)

Current information (Y/N): Y

RCS size: MEDIUM

Orbital parameters

Period: 114.381 minutes

Inclination: 74.0304 deg

SMA: 7805.395 km

Apoapsis: 1467.388 km

Periapsis: 1387.133 km

RAAN: 213.3012 deg

Eccentricy: 0.005141

Argument of periapsis: 60.6922 deg

Mean anomaly: 54.6333 deg

Mean motion: 12.58955572 rev/day

Mean motion (dot): -0.00000007 rev/day2

B* drag term: 0.000051194 1/REarth

Two-line elements (TLE)

Creation date: May 12, 2025, 2:31 a.m.

Reference frame: TEME

Reference center: EARTH

Epoch: May 11, 2025, 4:22 p.m. UTC

TLE line 0: 0 COSMOS 2131

TLE line 1: 1 21106U 91009G 25131.68217625 -.00000007 00000-0 51194-4 0 9990

TLE line 2: 2 21106 74.0304 213.3012 0051410 60.6922 54.6333 12.58955572573736

Live tracking on map

Real-time ground track for satellite COSMOS 2131.

In-orbit conjunctions

There are no conjunctions computed for COSMOS 2131, at the moment. Check back to stay up to date, as we update our databases every day.

Go to all conjunctions

Associated space launch

Military communications satellites

COSMOS 2131 was lifted into orbit during the mission ‘Kosmos-3M | Strela-1M 353-360’, on board a Kosmos-3M space rocket.

The launch took place on Feb. 12, 1991, 2:44 a.m. from 133/3 (133L).

For more information about the launch, click the button.

Launch to space Kosmos-3M | Strela-1M 353-360
Kosmos-3M | Strela-1M 353-360

Agency: N/A

Status: Launch Successful

Launch date: Feb. 12, 1991, 2:44 a.m. UTC

Rocket: Kosmos-3M

Launch pad: 133/3 (133L)

Location: Plesetsk Cosmodrome, Russian Federation

...

Latest news about this satellite

There are no fresh news available about this satellite. Check back as we update our databases every day.


Newsletter sign-up

Weekly statistics, charts and insights to help you stay on top of the space industry.